Location: Cerezo de Arriba
(41.2389°N, 3.5585°W)
Time: 14:59:52
(UTC+00:00)

SeaSat 1 - Pass Details

Date: 19 May 2025
Orbit: 738 x 740 km, 108.0° (Epoch: 23 June)

Event Time Altitude Azimuth Distance (km) Brightness Sun altitude
Exits shadow 21:36:48 23° 91° (E) 1,541 3.7 -19.1°
Maximum altitude 21:38:41 30° 54° (NE) 1,308 3.7 -19.4°
Drops below altitude 10° 21:42:54 10° 354° (N) 2,256 5.8 -19.8°
Sets 21:45:23 0° 344° (NNW) 3,183 7.0 -20.1°
